[[{"header":{"parameterUnit":"m.s-1","parameterCategory":1,"la1":30.2991,"la2":30.254,"lo1":-89.0895,"lo2":-89.0444,"dy":0.0017,"dx":0.0017,"nx":28,"ny":28,"refTime":"2025-11-21T03:00:00:Z","depth":0,"parameterNumber":2,"parameterNumberName":"U-component_of_WINDS"},"data":[0,0,0,0,0,0,0,0,0,0,0,0,0,0,0,0,0,0,0,0,0,0,0,0,0,0,0,0,0,0,0,0,0,0,0,0,0,0,0,0,0,0,0,0,0,0,0,0,0,0,0,0,0,0,0,0,0,0,-2.669,-2.669,0,-2.676,-2.6761,-2.6762,-2.6763,-2.6763,-2.6762,-2.6761,-2.6831,-2.6834,-2.6836,0,0,0,0,0,0,0,0,0,0,0,0,0,-2.6554,-2.6557,-2.6689,-2.669,-2.6691,-2.676,-2.6761,-2.6762,-2.6764,-2.6762,-2.6761,-2.676,-2.683,-2.6833,-2.6836,0,0,0,0,0,0,0,0,0,0,0,0,0,-2.6618,-2.6558,-2.6689,-2.67,-2.6702,-2.676,-2.6761,-2.6762,-2.6764,-2.6762,-2.6761,-2.676,-2.6829,-2.6833,-2.6837,-2.6888,0,0,-2.6849,-2.6851,0,0,0,0,0,0,0,0,-2.6614,-2.6623,-2.6698,-2.67,-2.6702,-2.6752,-2.6739,-2.6804,-2.6764,-2.674,-2.6761,-2.6759,-2.6806,-2.6811,-2.6827,-2.6891,-2.6894,-2.685,-2.6852,-2.6854,-2.6855,0,0,0,0,0,0,0,-2.661,-2.662,-2.6717,-2.6699,-2.6701,-2.6701,-2.6709,-2.6751,-2.6779,-2.6742,-2.6743,-2.6751,-2.6806,-2.6824,-2.6829,-2.6895,-2.6849,-2.6853,-2.6855,-2.6857,-2.7004,-2.7005,0,0,0,0,0,0,-2.6603,-2.6616,-2.6715,-2.672,-2.6654,-2.6705,-2.6713,-2.6737,-2.6779,-2.6784,-2.6752,-2.6751,-2.6817,-2.6824,-2.6832,-2.6893,-2.6854,-2.6857,-2.686,-2.7002,-2.7004,-2.7005,0,0,0,0,0,0,-2.6601,-2.6612,-2.6712,-2.6668,-2.6681,-2.6709,-2.6735,-2.6739,-2.6756,-2.6786,-2.6791,-2.6765,-2.6817,-2.6826,-2.6874,-2.6896,-2.6859,-2.6863,-2.7,-2.7003,-2.7005,-2.7017,0,0,0,0,0,0,-2.6597,-2.6611,-2.6631,-2.6668,-2.6683,-2.6754,-2.6736,-2.6741,-2.6763,-2.6762,-2.6799,-2.6804,-2.6816,-2.6868,-2.6878,-2.6901,-2.6866,-2.6998,-2.7001,-2.7004,-2.7015,-2.702,-2.7024,0,0,0,0,0,-2.6592,-2.6631,-2.6632,-2.6644,-2.6709,-2.6755,-2.6763,-2.6777,-2.6765,-2.6785,-2.6805,-2.6803,-2.6892,-2.6873,-2.6884,-2.6908,-2.6997,-2.7001,-2.7004,-2.7013,-2.7019,-2.7023,0,0,0,0,0,0,-2.6595,-2.6637,-2.6638,-2.6691,-2.672,-2.6755,-2.6781,-2.6783,-2.6815,-2.6813,-2.6828,-2.6836,-2.6884,-2.6901,-2.6879,-2.6959,-2.6943,-2.6949,-2.6946,-2.6952,-2.6956,-2.695,-2.6869,0,0,0,0,0,-2.6602,-2.6637,-2.6671,-2.6715,-2.6729,-2.6753,-2.6773,-2.6782,-2.6812,-2.6824,-2.6847,-2.6875,-2.691,-2.6932,-2.6965,-2.7018,-2.7026,-2.704,-2.7045,-2.7048,-2.7052,-2.7081,-2.7087,-2.7016,-2.7016,-2.7016,0,0,-2.6617,-2.6644,-2.6665,-2.6716,-2.6739,-2.6775,-2.6763,-2.6801,-2.6827,-2.6829,-2.6876,-2.6894,-2.6927,-2.6977,-2.7001,-2.6993,-2.7074,-2.7052,-2.7055,-2.7057,-2.7085,-2.7092,-2.7097,-2.7019,-2.7018,-2.7018,0,0,-2.6661,-2.6686,-2.6724,-2.6748,-2.6784,-2.6799,-2.6809,-2.6845,-2.6857,-2.6904,-2.6907,-2.6938,-2.6997,-2.702,-2.704,-2.7094,-2.7093,-2.7104,-2.7126,-2.7154,-2.716,-2.7165,-2.7183,-2.7189,-2.7109,-2.7109,-2.7109,0,-2.6675,-2.6728,-2.6744,-2.6782,-2.6804,-2.6809,-2.6848,-2.687,-2.6915,-2.6929,-2.6921,-2.6995,-2.7018,-2.7074,-2.7087,-2.7103,-2.7113,-2.7099,-2.7158,-2.7163,-2.7168,-2.7185,-2.7192,-2.711,-2.711,-2.711,-2.711,0,-2.6743,-2.678,-2.6807,-2.685,-2.6876,-2.6914,-2.6934,-2.6958,-2.6965,-2.6981,-2.7029,-2.7056,-2.7095,-2.7109,-2.7116,-2.7166,-2.716,-2.7155,-2.7138,-2.7175,-2.7192,-2.7199,-2.7111,-2.7111,-2.7111,-2.7111,0,0,-2.679,-2.6842,-2.6851,-2.6871,-2.6911,-2.694,-2.6978,-2.7017,-2.7037,-2.7068,-2.71,-2.715,-2.7145,-2.7168,-2.7177,-2.7201,-2.7241,-2.7193,-2.7194,-2.72,-2.7297,-2.73,-2.7308,-2.7242,-2.7243,-2.7244,-2.7294,0,-2.6838,-2.6906,-2.6921,-2.698,-2.7014,-2.702,-2.7054,-2.7082,-2.7098,-2.7129,-2.7147,-2.7182,-2.7174,-2.7187,-2.7212,-2.7231,-2.7261,-2.7228,-2.7271,-2.7272,-2.7261,-2.7317,-2.732,-2.7366,-2.7301,-2.7302,-2.7303,0,-2.6902,-2.6935,-2.6997,-2.7033,-2.7048,-2.7078,-2.7114,-2.7144,-2.7176,-2.7186,-2.7212,-2.7218,-2.7258,-2.7241,-2.7295,-2.7272,-2.7291,-2.7303,-2.7305,-2.7309,-2.7288,-2.732,-2.7381,-2.7387,-2.7314,-2.7313,-2.7312,0,-2.6929,-2.6989,-2.7034,-2.7051,-2.7094,-2.7114,-2.7133,-2.7164,-2.7186,-2.7218,-2.7233,-2.7269,-2.7288,-2.7316,-2.7332,-2.7318,-2.7385,-2.7369,-2.7393,-2.7393,-2.7406,-2.7405,-2.7469,-2.742,-2.742,-2.742,-2.742,0,-2.698,-2.7018,-2.7046,-2.7074,-2.7116,-2.7133,-2.7175,-2.7193,-2.7221,-2.7251,-2.7259,-2.7288,-2.7308,-2.7339,-2.7352,-2.7395,-2.7404,-2.7412,-2.7415,-2.7411,-2.741,-2.7422,-2.7419,-2.7422,-2.7421,-2.7421,-2.7421,0,-2.7016,-2.7037,-2.7087,-2.7124,-2.7134,-2.7163,-2.7194,-2.7221,-2.7238,-2.7277,-2.7287,-2.7314,-2.7351,-2.737,-2.7417,-2.7426,-2.7473,-2.7474,-2.7462,-2.7463,-2.7486,-2.7483,-2.7559,-2.7569,-2.7515,-2.7516,-2.7516,0,-2.7047,-2.7076,-2.7116,-2.7138,-2.7157,-2.7191,-2.7214,-2.7233,-2.7256,-2.7295,-2.7317,-2.7355,-2.7386,-2.7445,-2.7468,-2.7504,-2.7505,-2.753,-2.7511,-2.7505,-2.7504,-2.7502,-2.7504,-2.7532,-2.7533,-2.7533,-2.7534,0,-2.7098,-2.7107,-2.7141,-2.7177,-2.7205,-2.7235,-2.7264,-2.7281,-2.7304,-2.733,-2.7369,-2.7393,-2.7441,-2.7478,-2.7516,-2.7534,-2.7538,-2.754,-2.7547,-2.7542,-2.7534,-2.7538,-2.747,-2.7538,-2.7537,-2.7537,-2.7537,-2.7537,-2.7132,-2.7158,-2.719,-2.7227,-2.7251,-2.7279,-2.7305,-2.7326,-2.7359,-2.7399,-2.7408,-2.7449,-2.748,-2.7531,-2.7551,-2.7582,-2.7577,-2.7588,-2.759,-2.7592,-2.7593,-2.753,-2.7589,-2.7589,-2.7589,-2.7589,-2.7589,0,-2.7183,-2.7204,-2.7238,-2.7279,-2.7308,-2.731,-2.7342,-2.7366,-2.7402,-2.7431,-2.7461,-2.7506,-2.7542,-2.7568,-2.7605,-2.7625,-2.7628,-2.7634,-2.7632,-2.7636,-2.7596,-2.7585,-2.7632,-2.7632,-2.7632,-2.7632,-2.7632,-2.7632,-2.7213,-2.7257,-2.727,-2.7325,-2.7346,-2.7387,-2.7405,-2.743,-2.7453,-2.7502,-2.7533,-2.755,-2.7578,-2.7617,-2.765,-2.7657,-2.767,-2.7676,-2.7682,-2.7644,-2.7639,-2.7635,-2.7625,-2.7679,-2.7679,-2.772,-2.772,-2.7721]},{"header":{"parameterUnit":"m.s-1","parameterCategory":1,"la1":30.2991,"la2":30.254,"lo1":-89.0895,"lo2":-89.0444,"dy":0.0017,"dx":0.0017,"nx":28,"ny":28,"refTime":"2025-11-21T03:00:00:Z","depth":0,"parameterNumber":3,"parameterNumberName":"V-component_of_WINDS"},"data":[0,0,0,0,0,0,0,0,0,0,0,0,0,0,0,0,0,0,0,0,0,0,0,0,0,0,0,0,0,0,0,0,0,0,0,0,0,0,0,0,0,0,0,0,0,0,0,0,0,0,0,0,0,0,0,0,0,0,2.0514,2.0515,0,2.0624,2.0625,2.0627,2.0659,2.0658,2.0658,2.0657,2.0773,2.0777,2.078,0,0,0,0,0,0,0,0,0,0,0,0,0,2.0337,2.034,2.0514,2.0515,2.0517,2.0624,2.0626,2.0627,2.0659,2.0658,2.0657,2.0657,2.0772,2.0776,2.0781,0,0,0,0,0,0,0,0,0,0,0,0,0,2.0427,2.0341,2.0514,2.0545,2.0549,2.0624,2.0626,2.0627,2.0659,2.0658,2.0657,2.0656,2.0771,2.0776,2.0781,2.0833,0,0,2.0798,2.08,0,0,0,0,0,0,0,0,2.0422,2.0434,2.0539,2.0543,2.0548,2.0627,2.0606,2.0696,2.0659,2.0617,2.0657,2.0656,2.0725,2.0735,2.0757,2.0838,2.0843,2.0798,2.0802,2.0804,2.0806,0,0,0,0,0,0,0,2.0416,2.0429,2.0558,2.0541,2.0546,2.0556,2.0568,2.0623,2.0675,2.0621,2.0624,2.0636,2.0728,2.0752,2.076,2.0845,2.0798,2.0803,2.0807,2.0809,2.0979,2.098,0,0,0,0,0,0,2.0403,2.0424,2.0554,2.0561,2.0481,2.056,2.0573,2.0602,2.0675,2.0685,2.0637,2.0637,2.0743,2.0754,2.0764,2.0832,2.0804,2.0809,2.0812,2.0978,2.0979,2.098,0,0,0,0,0,0,2.0399,2.0415,2.055,2.0493,2.0511,2.0564,2.0597,2.0605,2.0629,2.0686,2.0696,2.0652,2.0743,2.0757,2.0816,2.0837,2.0812,2.0817,2.0976,2.0978,2.098,2.0967,0,0,0,0,0,0,2.0394,2.0413,2.0431,2.0493,2.0514,2.0598,2.0598,2.0608,2.0638,2.064,2.0703,2.0713,2.0743,2.0808,2.0822,2.0844,2.0821,2.0975,2.0977,2.0979,2.0966,2.0968,2.097,0,0,0,0,0,2.0388,2.0423,2.0432,2.0448,2.0538,2.0599,2.0611,2.0644,2.064,2.066,2.0698,2.0711,2.0832,2.0814,2.083,2.0854,2.0973,2.0976,2.0979,2.0965,2.0967,2.097,0,0,0,0,0,0,2.0363,2.0432,2.0442,2.0499,2.0543,2.0604,2.063,2.0646,2.0692,2.0692,2.0733,2.0747,2.0804,2.0835,2.0813,2.091,2.0904,2.091,2.0887,2.089,2.0892,2.0884,2.0825,0,0,0,0,0,2.0364,2.0406,2.0465,2.0509,2.053,2.0577,2.0604,2.0627,2.0674,2.0693,2.0735,2.0782,2.0831,2.0862,2.091,2.097,2.0987,2.0995,2.0997,2.0999,2.1004,2.1041,2.1047,2.099,2.099,2.0989,0,0,2.0366,2.0409,2.0433,2.0505,2.0542,2.0587,2.0592,2.0638,2.0673,2.0701,2.076,2.0792,2.0848,2.0909,2.0937,2.0936,2.1023,2.1002,2.1003,2.1007,2.1045,2.105,2.1055,2.0991,2.0991,2.0991,0,0,2.0394,2.043,2.0472,2.0509,2.0565,2.0596,2.0606,2.0666,2.0689,2.0749,2.0771,2.0814,2.0897,2.0937,2.0967,2.1015,2.103,2.1029,2.1041,2.1077,2.1082,2.1086,2.1105,2.1111,2.1034,2.1034,2.1034,0,2.0391,2.0458,2.0492,2.0539,2.0571,2.0598,2.0643,2.0677,2.0746,2.0769,2.0766,2.0873,2.0912,2.0984,2.0996,2.1019,2.1035,2.1022,2.1078,2.1082,2.1087,2.1106,2.1113,2.1034,2.1034,2.1034,2.1034,0,2.0452,2.0499,2.0527,2.0592,2.0628,2.0673,2.0716,2.0749,2.0769,2.0801,2.0864,2.0912,2.0972,2.0991,2.101,2.1067,2.1065,2.1069,2.1064,2.1092,2.111,2.1118,2.1033,2.1033,2.1034,2.1034,0,0,2.0466,2.0552,2.0562,2.0593,2.0658,2.0696,2.0744,2.0802,2.0831,2.0878,2.0921,2.0993,2.0998,2.1034,2.1059,2.109,2.1128,2.1092,2.1094,2.1098,2.1197,2.1194,2.1202,2.1139,2.114,2.1141,2.1194,0,2.0503,2.0589,2.0623,2.0693,2.0738,2.0766,2.0809,2.0855,2.0887,2.0932,2.0969,2.1019,2.1022,2.1044,2.1076,2.1116,2.1149,2.1113,2.1182,2.1184,2.1168,2.1211,2.1207,2.1254,2.1201,2.1202,2.1203,0,2.0558,2.0606,2.0681,2.0743,2.0764,2.0801,2.0859,2.0901,2.0955,2.0977,2.1017,2.1041,2.1096,2.1087,2.1165,2.114,2.1171,2.1195,2.1198,2.1206,2.1195,2.1223,2.127,2.1277,2.1214,2.1213,2.1212,0,2.0563,2.0647,2.0703,2.0729,2.0803,2.0829,2.0861,2.0914,2.0948,2.1,2.1023,2.108,2.1112,2.1157,2.1197,2.1187,2.1273,2.1266,2.1294,2.1294,2.1311,2.131,2.1365,2.1329,2.1328,2.1328,2.1328,0,2.0602,2.0647,2.0707,2.0741,2.0794,2.0834,2.0886,2.0921,2.0968,2.1012,2.104,2.1082,2.1131,2.118,2.1212,2.1273,2.1287,2.1308,2.1316,2.1306,2.1304,2.1327,2.1326,2.133,2.133,2.1329,2.1329,0,2.0616,2.0657,2.0721,2.0787,2.0804,2.0841,2.0898,2.0934,2.0969,2.1024,2.104,2.1095,2.1154,2.1198,2.1274,2.1296,2.1362,2.137,2.1344,2.1348,2.1374,2.1372,2.1448,2.1461,2.1414,2.1414,2.1415,0,2.0638,2.0674,2.0744,2.0775,2.0807,2.0856,2.0892,2.0934,2.097,2.1036,2.1066,2.1126,2.1177,2.1271,2.1319,2.1379,2.1389,2.1412,2.1398,2.1388,2.1392,2.139,2.1395,2.1414,2.1414,2.1414,2.1414,0,2.0675,2.0695,2.0743,2.0801,2.0842,2.0889,2.0937,2.0962,2.1013,2.1053,2.1113,2.1153,2.1232,2.1293,2.1358,2.1394,2.1414,2.1418,2.1429,2.1419,2.1403,2.1415,2.135,2.1417,2.1416,2.1416,2.1416,2.1416,2.0696,2.073,2.0785,2.084,2.088,2.0925,2.0964,2.1004,2.1054,2.1121,2.1144,2.1207,2.1264,2.1354,2.1391,2.1443,2.1443,2.1457,2.1461,2.1464,2.1464,2.1394,2.1454,2.1454,2.1454,2.1454,2.1454,0,2.0735,2.0773,2.0823,2.0889,2.0933,2.0947,2.1002,2.1039,2.1094,2.1145,2.1195,2.1266,2.1327,2.138,2.1444,2.1476,2.1487,2.1491,2.149,2.1499,2.1459,2.1445,2.1481,2.1481,2.1481,2.1481,2.1481,2.1481,2.0761,2.0821,2.0847,2.0929,2.0967,2.1028,2.1058,2.1101,2.1143,2.1221,2.1271,2.1305,2.1359,2.1427,2.1485,2.15,2.1523,2.1525,2.1542,2.1504,2.1501,2.1498,2.1485,2.1529,2.1529,2.1578,2.1578,2.1579]}]]